Location: Cactus School
(34.5700°N, 118.0931°W)
Time: 13:47:36
(UTC-08:00)

Transit 2A Rocket - All Passes

Search period start: 21 November 2019 00:00
Search period end: 01 December 2019 00:00
Orbit: 594 x 909 km, 66.7° (Epoch: 20 November)

Date Brightness Start Highest point End Pass type
(mag) Time Alt. Az. Time Alt. Az. Time Alt. Az.
21 Nov - 05:14:29 10° N 05:18:02 23° NE 05:21:42 10° ESE visible
21 Nov - 06:56:37 10° NW 07:00:30 30° WSW 07:04:37 10° S daylight
21 Nov - 19:45:22 10° S 19:49:55 38° ESE 19:54:09 10° NE night (unlit)
21 Nov - 21:29:02 10° WSW 21:32:30 20° NW 21:35:49 10° N night (unlit)
22 Nov - 04:33:16 10° NNE 04:35:16 13° NE 04:37:18 10° ENE visible
22 Nov - 06:13:42 10° NW 06:18:05 60° WSW 06:22:45 10° SSE daylight
22 Nov - 19:04:01 10° SSE 19:07:32 20° ESE 19:10:52 10° ENE visible
22 Nov - 20:45:24 10° SW 20:49:50 36° WNW 20:54:00 10° N night (unlit)
23 Nov - 05:31:10 10° NNW 05:35:35 68° ENE 05:40:19 10° SE visible
23 Nov - 20:02:25 10° SSW 20:07:16 69° WNW 20:11:47 10° NNE visible
24 Nov - 04:48:58 10° N 04:53:02 34° ENE 04:57:18 10° SE visible
24 Nov - 06:32:05 10° WNW 06:35:19 19° WSW 06:38:42 10° SSW daylight
24 Nov - 19:19:58 10° SSW 19:24:47 60° ESE 19:29:15 10° NE visible
24 Nov - 21:05:19 10° W 21:07:35 13° NW 21:09:49 10° NNW night (unlit)
25 Nov - 04:07:10 10° N 04:10:21 19° NE 04:13:39 10° E visible
25 Nov - 05:48:47 10° NW 05:52:56 38° WSW 05:57:21 10° S visible
25 Nov - 18:38:07 10° S 18:42:21 30° ESE 18:46:20 10° NE visible
25 Nov - 20:21:00 10° WSW 20:24:50 24° WNW 20:28:29 10° N visible
26 Nov - 03:26:48 10° NE 03:27:33 10° NE 03:28:18 10° ENE visible
26 Nov - 05:06:01 10° NNW 05:10:29 77° WSW 05:15:17 10° SSE visible
26 Nov - 17:57:10 10° SE 18:00:00 16° ESE 18:02:43 10° ENE visible
26 Nov - 19:37:36 10° SW 19:42:12 44° WNW 19:46:30 10° NNE visible
27 Nov - 04:23:37 10° NNW 04:27:59 53° ENE 04:32:38 10° SE visible
27 Nov - 06:08:12 10° W 06:10:06 12° WSW 06:12:02 10° SW visible
27 Nov - 18:54:49 10° SSW 18:59:40 87° WNW 19:04:11 10° NNE visible
28 Nov - 03:41:32 10° N 03:45:23 28° ENE 03:49:26 10° ESE visible
28 Nov - 05:24:05 10° NW 05:27:46 24° WSW 05:31:39 10° SSW visible
28 Nov - 18:12:33 10° S 18:17:13 46° ESE 18:21:32 10° NE visible
28 Nov - 19:56:58 10° W 19:59:53 16° NW 20:02:42 10° NNW visible
29 Nov - 02:59:57 10° NNE 03:02:40 16° NE 03:05:27 10° E visible
29 Nov - 04:41:02 10° NW 04:45:22 48° WSW 04:50:01 10° S visible
29 Nov - 17:30:57 10° SSE 17:34:48 24° ESE 17:38:27 10° ENE visible
29 Nov - 19:13:03 10° WSW 19:17:10 29° WNW 19:21:05 10° N visible
30 Nov - 03:58:24 10° NNW 04:02:53 84° ENE 04:07:43 10° SSE visible
30 Nov - 16:50:41 10° SE 16:52:28 12° ESE 16:54:12 10° E daylight
30 Nov - 18:29:53 10° SW 18:34:35 56° WNW 18:38:58 10° NNE visible
